When you browse on this site, cookies collect data to enhance your experience and personalize the content and advertising you see.
Visit our Privacy Policy to learn more. By continuing to use the site, you agree to this use of cookies and data.
  • In Portugal
  • List of Countries
  • For 7 days
  • Water Temperature
  • Weather Map
  • Weather Widgets
  • user-avatar
    Login

    Hourly Weather Albena

    Today, 28 March, Saturday

    Time Temperature Precipitation Wind Pressure Humidity
    00:00 +4°C° 0 mm 4 mps 745 mmHg 79%
    01:00 +4°C° 0 mm 3 mps 745 mmHg 77%
    02:00 +4°C° 0 mm 3 mps 744 mmHg 76%
    03:00 +3°C° 0 mm 3 mps 744 mmHg 76%
    04:00 +3°C° 0 mm 3 mps 744 mmHg 76%
    05:00 +3°C° 0 mm 3 mps 744 mmHg 76%
    06:00 +4°C° 0 mm 4 mps 744 mmHg 73%
    07:00 +5°C° 0 mm 4 mps 744 mmHg 71%
    08:00 +6°C° 0 mm 4 mps 744 mmHg 69%
    09:00 +8°C° 0 mm 4 mps 744 mmHg 64%
    10:00 +11°C° 0 mm 4 mps 744 mmHg 59%
    11:00 +12°C° 0 mm 4 mps 744 mmHg 55%
    12:00 +13°C° 0 mm 4 mps 743 mmHg 53%
    13:00 +14°C° 0 mm 4 mps 743 mmHg 52%
    14:00 +14°C° 0 mm 3 mps 742 mmHg 51%
    15:00 +14°C° 0 mm 3 mps 742 mmHg 53%
    16:00 +13°C° 0 mm 3 mps 742 mmHg 55%
    17:00 +14°C° 0 mm 2 mps 742 mmHg 57%
    18:00 +13°C° 0 mm 2 mps 742 mmHg 62%
    19:00 +11°C° 0 mm 1 mps 742 mmHg 67%
    20:00 +10°C° 0 mm 1 mps 742 mmHg 73%
    21:00 +9°C° 0 mm 1 mps 742 mmHg 74%
    22:00 +9°C° 0 mm 1 mps 742 mmHg 74%
    23:00 +8°C° 0 mm 2 mps 741 mmHg 75%

    Tomorrow, 29 March, Sunday

    Time Temperature Precipitation Wind Pressure Humidity
    00:00 +8°C° 0 mm 2 mps 741 mmHg 75%
    01:00 +8°C° 0 mm 3 mps 741 mmHg 75%
    02:00 +8°C° 0 mm 3 mps 741 mmHg 75%
    03:00 +7°C° 0 mm 4 mps 741 mmHg 74%
    04:00 +7°C° 0 mm 4 mps 740 mmHg 74%
    05:00 +6°C° 0 mm 5 mps 740 mmHg 74%
    06:00 +7°C° 0 mm 5 mps 740 mmHg 71%
    07:00 +8°C° 0 mm 5 mps 740 mmHg 68%
    08:00 +9°C° 0 mm 6 mps 740 mmHg 65%
    09:00 +10°C° 0 mm 5 mps 741 mmHg 62%
    10:00 +12°C° 0 mm 5 mps 741 mmHg 59%
    11:00 +13°C° 0 mm 5 mps 741 mmHg 55%
    12:00 +14°C° 0 mm 4 mps 741 mmHg 53%
    13:00 +14°C° 0 mm 4 mps 740 mmHg 51%
    14:00 +15°C° 0 mm 4 mps 740 mmHg 49%
    15:00 +16°C° 0 mm 3 mps 740 mmHg 50%
    16:00 +14°C° 0 mm 3 mps 740 mmHg 52%
    17:00 +15°C° 0 mm 2 mps 740 mmHg 53%
    18:00 +14°C° 0 mm 2 mps 740 mmHg 57%
    19:00 +13°C° 0 mm 2 mps 741 mmHg 60%
    20:00 +12°C° 0 mm 2 mps 741 mmHg 64%
    21:00 +10°C° 0 mm 2 mps 741 mmHg 67%
    22:00 +10°C° 0 mm 2 mps 741 mmHg 69%
    23:00 +9°C° 0 mm 3 mps 741 mmHg 72%

    Day after tomorrow, 30 March, Monday

    Time Temperature Precipitation Wind Pressure Humidity
    00:00 +9°C° 0 mm 3 mps 741 mmHg 73%
    01:00 +9°C° 0 mm 3 mps 741 mmHg 73%
    02:00 +8°C° 0 mm 3 mps 741 mmHg 74%
    03:00 +8°C° 0 mm 3 mps 741 mmHg 76%
    04:00 +8°C° 0 mm 3 mps 742 mmHg 78%
    05:00 +7°C° 0 mm 2 mps 742 mmHg 80%
    06:00 +9°C° 0 mm 2 mps 742 mmHg 76%
    07:00 +10°C° 0 mm 2 mps 742 mmHg 73%
    08:00 +12°C° 0 mm 2 mps 742 mmHg 69%
    09:00 +13°C° 0.1 mm 2 mps 743 mmHg 63%
    10:00 +15°C° 0.1 mm 2 mps 743 mmHg 58%
    11:00 +18°C° 0.1 mm 1 mps 743 mmHg 52%
    12:00 +17°C° 0.1 mm 2 mps 743 mmHg 50%
    13:00 +17°C° 0.1 mm 2 mps 743 mmHg 48%
    14:00 +18°C° 0.1 mm 2 mps 743 mmHg 46%
    15:00 +17°C° 0.1 mm 3 mps 743 mmHg 50%
    16:00 +16°C° 0.1 mm 3 mps 742 mmHg 55%
    17:00 +14°C° 0.1 mm 3 mps 742 mmHg 60%
    18:00 +12°C° 0 mm 3 mps 742 mmHg 65%
    19:00 +12°C° 0 mm 2 mps 743 mmHg 71%
    20:00 +9°C° 0 mm 2 mps 743 mmHg 76%
    21:00 +10°C° 0 mm 1 mps 743 mmHg 77%
    22:00 +10°C° 0 mm 1 mps 743 mmHg 77%
    23:00 +9°C° 0 mm 1 mps 743 mmHg 78%

    31 March, Tuesday

    Time Temperature Precipitation Wind Pressure Humidity
    00:00 +9°C° 0 mm 1 mps 743 mmHg 79%
    01:00 +9°C° 0 mm 1 mps 743 mmHg 80%
    02:00 +9°C° 0 mm 1 mps 743 mmHg 82%
    03:00 +8°C° 0 mm 1 mps 743 mmHg 82%
    04:00 +7°C° 0 mm 0 mps 743 mmHg 83%
    05:00 +7°C° 0 mm 0 mps 743 mmHg 84%
    06:00 +9°C° 0 mm 1 mps 743 mmHg 81%
    07:00 +8°C° 0 mm 2 mps 743 mmHg 79%
    08:00 +9°C° 0 mm 3 mps 743 mmHg 76%
    09:00 +10°C° 0 mm 3 mps 743 mmHg 73%
    10:00 +12°C° 0 mm 4 mps 744 mmHg 70%
    11:00 +13°C° 0 mm 4 mps 744 mmHg 67%
    12:00 +13°C° 0.1 mm 5 mps 744 mmHg 67%
    13:00 +12°C° 0.1 mm 5 mps 744 mmHg 68%
    14:00 +11°C° 0.1 mm 6 mps 744 mmHg 69%
    15:00 +10°C° 0 mm 6 mps 744 mmHg 71%
    16:00 +9°C° 0 mm 7 mps 744 mmHg 74%
    17:00 +8°C° 0 mm 7 mps 744 mmHg 76%
    18:00 +6°C° 0 mm 7 mps 744 mmHg 78%
    19:00 +6°C° 0 mm 7 mps 745 mmHg 79%
    20:00 +5°C° 0 mm 7 mps 745 mmHg 81%
    21:00 +4°C° 0 mm 7 mps 745 mmHg 81%
    22:00 +4°C° 0 mm 7 mps 746 mmHg 81%
    23:00 +4°C° 0 mm 7 mps 746 mmHg 81%

    1 April, Wednesday

    Time Temperature Precipitation Wind Pressure Humidity
    00:00 +3°C° 0 mm 6 mps 746 mmHg 82%
    01:00 +3°C° 0 mm 6 mps 746 mmHg 83%
    02:00 +3°C° 0 mm 6 mps 746 mmHg 83%
    03:00 +3°C° 0 mm 6 mps 746 mmHg 83%
    04:00 +2°C° 0 mm 6 mps 746 mmHg 84%
    05:00 +2°C° 0 mm 6 mps 746 mmHg 84%
    06:00 +2°C° 0.1 mm 5 mps 746 mmHg 86%
    07:00 +2°C° 0.1 mm 5 mps 746 mmHg 88%
    08:00 +2°C° 0.1 mm 5 mps 746 mmHg 90%
    09:00 +1°C° 0.4 mm 5 mps 746 mmHg 91%
    10:00 +1°C° 0.4 mm 5 mps 746 mmHg 92%
    11:00 +1°C° 0.4 mm 5 mps 746 mmHg 93%
    12:00 +1°C° 0.4 mm 5 mps 746 mmHg 93%
    13:00 +1°C° 0.4 mm 5 mps 746 mmHg 94%
    14:00 +1°C° 0.4 mm 5 mps 746 mmHg 94%
    15:00 +1°C° 0.2 mm 5 mps 746 mmHg 94%
    16:00 +1°C° 0.2 mm 5 mps 746 mmHg 93%
    17:00 +1°C° 0.2 mm 5 mps 746 mmHg 93%
    18:00 +1°C° 0.5 mm 5 mps 746 mmHg 93%
    19:00 +1°C° 0.5 mm 5 mps 746 mmHg 93%
    20:00 +1°C° 0.5 mm 5 mps 746 mmHg 94%
    21:00 +1°C° 0.3 mm 6 mps 747 mmHg 93%
    22:00 +1°C° 0.3 mm 6 mps 747 mmHg 93%
    23:00 +1°C° 0.3 mm 6 mps 747 mmHg 92%

    2 April, Thursday

    Time Temperature Precipitation Wind Pressure Humidity
    00:00 0°C° 0.1 mm 7 mps 747 mmHg 89%
    01:00 0°C° 0.1 mm 7 mps 747 mmHg 87%
    02:00 0°C° 0.1 mm 7 mps 747 mmHg 84%
    03:00 -1°C° 0 mm 7 mps 747 mmHg 83%
    04:00 -1°C° 0 mm 7 mps 747 mmHg 83%
    05:00 -1°C° 0 mm 7 mps 747 mmHg 82%
    06:00 -1°C° 0 mm 7 mps 747 mmHg 78%
    07:00 0°C° 0 mm 7 mps 747 mmHg 75%
    08:00 0°C° 0 mm 7 mps 748 mmHg 71%
    09:00 +3°C° 0 mm 7 mps 748 mmHg 64%
    10:00 +4°C° 0 mm 7 mps 748 mmHg 58%
    11:00 +5°C° 0 mm 6 mps 748 mmHg 51%
    12:00 +7°C° 0 mm 6 mps 748 mmHg 49%
    13:00 +8°C° 0 mm 5 mps 748 mmHg 46%
    14:00 +10°C° 0 mm 4 mps 748 mmHg 44%
    15:00 +8°C° 0 mm 4 mps 748 mmHg 46%
    16:00 +9°C° 0 mm 3 mps 747 mmHg 49%
    17:00 +9°C° 0 mm 3 mps 747 mmHg 51%
    18:00 +7°C° 0 mm 2 mps 748 mmHg 58%
    19:00 +5°C° 0 mm 2 mps 748 mmHg 66%
    20:00 +5°C° 0 mm 1 mps 748 mmHg 73%
    21:00 +3°C° 0 mm 2 mps 748 mmHg 75%
    22:00 +3°C° 0 mm 2 mps 748 mmHg 76%
    23:00 +3°C° 0 mm 2 mps 749 mmHg 77%
    Show more